{"data":{"norad_id":67359,"intl_designator":"2026-003AB","name":"STARLINK-36499","alt_names":[],"object_type":"PAYLOAD","status":"ACTIVE","operator":null,"country":"US","launch_date":"2026-01-09","launch_site_code":"AFETR","launch_vehicle":null,"mission":null,"orbit_class":"UNKNOWN","rcs_meters":null,"size_class":null,"mass_kg":null,"dimensions":null,"purposes":["comms"],"wikipedia_slug":null,"has_3d_model":false,"image_url":null,"decayed_at":null,"tle_current":{"epoch":"2026-09-19T22:01:16.675104Z","epoch_age_seconds":125680,"freshness":"FRESH","line1":"1 67359U 26003AB  26262.91755411  .00018907  00000+0  69461-3 0  9995","line2":"2 67359  43.0013 210.5958 0001386 272.2367  87.8325 15.27590741 38522","mean_motion":15.27590741,"eccentricity":0.0001386,"inclination_deg":43.0013,"raan_deg":210.5958,"arg_perigee_deg":272.2367,"mean_anomaly_deg":87.8325,"bstar":0.00069461,"rev_number":3852,"period_min":94.266085892701,"perigee_km":482.06597787483,"apogee_km":483.96788974528,"semimajor_km":6861.1539338101,"source":"CELESTRAK","updated_at":"2026-09-20T09:00:43.517206Z"}}}